FW0810 Weather Reports


time (UTC)temp
C
wind
direction
speed
KPH
gust
KPH
rain 1hr
cm
rain 24hr
cm
rain mn
cm
humidity
%
barometer
mb
20260506153320 19 199 3.2 17.7 0.00 0.03 0.03 73 1014.9
20260506152308 19 254 3.2 9.7 0.00 0.03 0.03 74 1014.9
20260506151807 19 188 3.2 17.7 0.00 0.03 0.03 74 1014.9
20260506151306 19 207 3.2 17.7 0.00 0.03 0.03 75 1014.9
20260506150806 19 139 3.2 17.7 0.00 0.03 0.03 75 1015.0
20260506150306 19 295 3.2 27.4 0.00 0.03 0.03 75 1014.9
20260506145805 19 191 3.2 27.4 0.00 0.03 0.03 75 1014.9
20260506144805 19 269 3.2 16.1 0.00 0.05 0.03 78 1015.0
20260506144304 18 245 4.8 16.1 0.00 0.05 0.03 78 1015.0
20260506143804 19 340 3.2 14.5 0.00 0.05 0.03 78 1015.0
20260506143305 19 287 0.0 9.7 0.00 0.05 0.03 77 1014.9
20260506142806 19 272 0.0 11.3 0.00 0.05 0.03 77 1015.0
20260506142305 19 168 0.0 11.3 0.00 0.05 0.03 75 1014.9
20260506141802 19 163 0.0 6.4 0.00 0.05 0.03 75 1014.9
20260506141300 20 161 1.6 17.7 0.00 0.05 0.03 74 1014.9
20260506140800 20 275 3.2 17.7 0.00 0.05 0.03 72 1014.8
20260506140300 20 132 1.6 12.9 0.00 0.05 0.03 71 1014.8
20260506135754 20 178 1.6 9.7 0.00 0.05 0.03 71 1014.9
20260506135254 20 252 3.2 16.1 0.00 0.05 0.03 70 1014.7
20260506134755 20 166 4.8 16.1 0.00 0.05 0.03 70 1014.8
20260506133753 20 186 1.6 9.7 0.00 0.05 0.03 68 1015.0
20260506133252 20 148 0.0 6.4 0.00 0.05 0.03 67 1015.2
20260506132752 20 245 0.0 6.4 0.00 0.05 0.03 67 1015.2
20260506132252 20 201 0.0 8.0 0.00 0.05 0.03 66 1015.2
20260506131752 20 268 0.0 8.0 0.00 0.05 0.03 65 1015.2
20260506131253 20 174 1.6 8.0 0.00 0.05 0.03 65 1015.4
20260506125745 20 156 1.6 9.7 0.00 0.05 0.03 63 1015.5
20260506124746 20 150 3.2 16.1 0.00 0.05 0.03 62 1015.6
20260506124246 20 101 3.2 16.1 0.00 0.05 0.03 62 1015.6
20260506123747 21 173 3.2 12.9 0.00 0.05 0.03 61 1015.6
20260506123247 21 199 3.2 12.9 0.00 0.05 0.03 61 1015.5
20260506122746 21 169 1.6 9.7 0.00 0.05 0.03 60 1015.5
20260506121246 21 142 3.2 16.1 0.00 0.05 0.03 60 1015.2
20260506120247 21 156 4.8 22.5 0.00 0.05 0.03 58 1015.2
20260506115745 21 143 4.8 22.5 0.00 0.05 0.03 58 1015.1
20260506114244 21 156 3.2 19.3 0.00 0.05 0.03 59 1015.1
20260506113745 21 158 4.8 19.3 0.00 0.05 0.03 59 1015.1
20260506112239 21 340 3.2 20.9 0.00 0.05 0.03 58 1015.1
20260506111742 21 45 3.2 12.9 0.00 0.05 0.03 60 1015.1
20260506111241 21 171 3.2 22.5 0.00 0.05 0.03 60 1015.2
20260506110737 21 166 4.8 22.5 0.00 0.05 0.03 59 1015.3
20260506110237 21 200 3.2 22.5 0.00 0.05 0.03 60 1015.3
20260506105736 21 124 4.8 22.5 0.00 0.05 0.03 60 1015.4
20260506105236 21 255 4.8 19.3 0.00 0.05 0.03 58 1015.6
20260506104736 21 308 3.2 22.5 0.00 0.05 0.03 58 1015.4
20260506104234 21 252 3.2 22.5 0.00 0.05 0.03 58 1015.5
20260506103734 21 78 1.6 8.0 0.00 0.05 0.03 60 1015.4
20260506103234 20 174 3.2 24.1 0.00 0.05 0.03 59 1015.6
20260506102734 21 193 3.2 24.1 0.00 0.05 0.03 56 1015.5
20260506102228 21 143 0.0 8.0 0.00 0.05 0.03 60 1015.4
20260506100720 20 271 3.2 19.3 0.00 0.05 0.03 59 1015.6
20260506100234 20 252 3.2 19.3 0.00 0.05 0.03 59 1015.7
20260506095719 20 84 0.0 16.1 0.00 0.05 0.03 58 1015.5
20260506095220 20 86 0.0 6.4 0.00 0.05 0.03 60 1015.4
20260506094720 20 71 1.6 6.4 0.00 0.05 0.03 61 1015.2
20260506094220 20 93 1.6 8.0 0.00 0.05 0.03 63 1015.3
20260506093722 20 121 1.6 11.3 0.00 0.05 0.03 61 1015.2
20260506093221 20 347 1.6 11.3 0.00 0.05 0.03 60 1015.4
20260506092720 20 96 1.6 4.8 0.00 0.05 0.03 61 1015.4
20260506092217 20 309 1.6 9.7 0.00 0.05 0.03 62 1015.4
20260506091717 20 92 1.6 9.7 0.00 0.05 0.03 62 1015.3
20260506091217 20 44 0.0 6.4 0.00 0.05 0.03 64 1015.3
20260506090720 20 96 1.6 12.9 0.00 0.05 0.03 65 1015.3
20260506090217 19 223 3.2 14.5 0.00 0.05 0.03 65 1015.3
20260506085718 19 162 4.8 14.5 0.00 0.05 0.03 66 1015.3
20260506085217 19 15 3.2 17.7 0.00 0.05 0.03 65 1015.4
20260506084205 18 127 1.6 9.7 0.00 0.05 0.03 68 1015.4
20260506083659 18 78 3.2 16.1 0.00 0.05 0.03 69 1015.4
20260506083153 18 82 4.8 16.1 0.00 0.05 0.03 70 1015.4
20260506082646 18 126 3.2 12.9 0.00 0.05 0.03 70 1015.3
20260506082141 18 92 3.2 11.3 0.00 0.05 0.03 70 1015.4
20260506081635 18 109 3.2 17.7 0.00 0.05 0.03 72 1015.3
20260506081131 17 129 3.2 17.7 0.00 0.05 0.03 72 1015.4
20260506080623 17 276 1.6 14.5 0.00 0.05 0.03 71 1015.5
20260506080131 17 38 1.6 8.0 0.00 0.05 0.03 71 1015.5
20260506072536 17 89 4.8 16.1 0.00 0.05 0.03 73 1015.3
20260506072031 17 53 4.8 16.1 0.00 0.05 0.03 73 1015.3
20260506071032 17 105 3.2 11.3 0.00 0.05 0.03 75 1015.3
20260506070531 16 195 1.6 14.5 0.00 0.05 0.03 77 1015.5
20260506061530 15 101 1.6 8.0 0.00 0.05 0.03 80 1015.7
20260506061033 15 101 1.6 8.0 0.00 0.05 0.03 79 1015.7
20260506060531 15 82 0.0 0.0 0.00 0.05 0.03 80 1015.7
20260506051010 15 210 1.6 6.4 0.00 0.05 0.03 80 1015.8
20260506050512 15 91 1.6 6.4 0.00 0.05 0.03 79 1015.6
20260506045015 15 80 0.0 6.4 0.00 0.05 0.03 79 1015.6
20260506044507 15 88 0.0 6.4 0.00 0.05 0.03 79 1015.6
20260506043005 15 92 0.0 8.0 0.00 0.08 0.03 79 1015.8
20260506042001 15 93 0.0 4.8 0.00 0.08 0.03 80 1015.6
20260506040458 15 117 0.0 0.0 0.00 0.10 0.03 79 1015.5
20260506035957 15 117 0.0 3.2 0.00 0.13 0.03 78 1015.4
20260506035458 15 126 1.6 6.4 0.00 0.13 0.03 77 1015.4
20260506034457 15 77 0.0 6.4 0.00 0.15 0.03 79 1015.3
20260506033954 15 76 0.0 9.7 0.00 0.15 0.03 78 1015.6
20260506033452 15 94 0.0 9.7 0.00 0.15 0.03 79 1015.6
20260506032951 15 89 0.0 4.8 0.00 0.15 0.03 79 1015.6
20260506032453 15 79 1.6 6.4 0.00 0.15 0.03 80 1015.6
20260506031434 15 58 1.6 9.7 0.03 0.18 0.03 80 1015.5
20260506030930 15 101 1.6 9.7 0.03 0.18 0.03 81 1015.7
20260506025931 15 83 0.0 8.0 0.03 0.18 0.03 82 1015.7
20260506025433 15 73 0.0 3.2 0.03 0.18 0.03 83 1015.6
20260506024931 15 91 0.0 6.4 0.03 0.20 0.03 82 1015.7
20260506024433 16 92 0.0 6.4 0.03 0.20 0.03 82 1015.7
20260506023932 16 53 0.0 0.0 0.03 0.20 0.03 82 1015.7
20260506023433 16 53 0.0 0.0 0.03 0.20 0.03 81 1016.0
20260506022433 16 53 0.0 6.4 0.03 0.20 0.03 79 1016.1
20260506021931 16 108 0.0 6.4 0.00 0.18 0.00 80 1016.0
20260506021432 16 88 1.6 6.4 0.00 0.18 0.00 80 1016.1
20260506020433 16 121 0.0 0.0 0.00 0.18 0.00 80 1016.3
20260506015430 16 122 0.0 0.0 0.00 0.18 0.00 81 1016.4
20260506014930 16 122 0.0 0.0 0.00 0.18 0.00 81 1016.3
20260506014430 16 124 0.0 1.6 0.00 0.18 0.00 81 1016.4
20260506013930 16 124 0.0 1.6 0.00 0.18 0.00 81 1016.4
20260506013430 16 72 0.0 3.2 0.00 0.18 0.00 82 1016.3
20260506012932 16 72 0.0 3.2 0.00 0.18 0.00 82 1016.2
20260506012430 16 72 0.0 3.2 0.00 0.18 0.00 82 1016.2
20260506011928 16 52 0.0 3.2 0.00 0.18 0.00 82 1016.2
20260506011430 16 105 0.0 1.6 0.00 0.18 0.00 83 1016.2
20260506010927 16 110 0.0 4.8 0.00 0.18 0.00 83 1016.3
20260506010427 16 110 0.0 4.8 0.00 0.18 0.00 82 1016.4
20260506005923 16 90 0.0 3.2 0.00 0.18 0.00 83 1016.3
20260506005425 16 91 0.0 4.8 0.00 0.18 0.00 83 1016.3
20260506004923 16 90 1.6 8.0 0.00 0.18 0.00 83 1016.3
20260506004420 16 86 1.6 9.7 0.00 0.18 0.00 83 1016.2
20260506003913 16 89 1.6 9.7 0.00 0.18 0.00 83 1016.2
20260506003408 16 79 0.0 8.0 0.00 0.18 0.00 83 1016.3
20260506002902 16 88 0.0 4.8 0.00 0.18 0.00 83 1016.4
20260506002356 16 90 0.0 4.8 0.00 0.18 0.00 84 1016.4
20260506001852 16 91 0.0 4.8 0.00 0.18 0.00 84 1016.4
20260506001345 16 92 0.0 6.4 0.00 0.18 0.00 84 1016.5
20260506000335 16 112 0.0 0.0 0.00 0.18 0.00 84 1016.6
20260505235828 16 112 0.0 0.0 0.00 0.18 0.00 84 1016.6
20260505235320 16 111 0.0 4.8 0.00 0.18 0.00 84 1016.7
20260505234328 16 124 0.0 1.6 0.00 0.18 0.00 83 1016.8
20260505233815 16 126 0.0 6.4 0.00 0.18 0.00 83 1016.8
20260505233311 16 134 0.0 6.4 0.00 0.18 0.00 83 1016.8
20260505232808 16 117 0.0 4.8 0.00 0.18 0.00 83 1016.8
20260505232308 16 112 0.0 4.8 0.00 0.18 0.00 83 1016.8
20260505231306 16 102 0.0 3.2 0.00 0.18 0.00 83 1016.9
20260505230804 16 103 0.0 6.4 0.00 0.18 0.00 83 1017.0
20260505230304 16 103 1.6 6.4 0.00 0.18 0.00 82 1017.1
20260505225805 16 172 0.0 6.4 0.00 0.18 0.00 82 1017.1
20260505225318 16 131 0.0 1.6 0.00 0.18 0.00 83 1017.1
20260505224810 16 138 0.0 3.2 0.00 0.18 0.00 83 1017.1
20260505224302 16 182 0.0 4.8 0.00 0.18 0.00 82 1017.2
20260505223800 16 127 0.0 4.8 0.00 0.18 0.00 82 1017.2
20260505223301 16 153 0.0 4.8 0.00 0.18 0.00 82 1017.3
20260505222259 16 142 0.0 1.6 0.00 0.18 0.00 82 1017.3
20260505221759 16 142 0.0 6.4 0.00 0.18 0.00 82 1017.3
20260505221256 16 139 0.0 6.4 0.00 0.18 0.00 82 1017.3
20260505220757 16 192 0.0 3.2 0.00 0.18 0.00 82 1017.3
20260505220258 17 192 0.0 6.4 0.00 0.18 0.00 82 1017.4
20260505215253 17 104 0.0 0.0 0.00 0.18 0.18 81 1017.5
20260505214753 17 104 0.0 1.6 0.00 0.18 0.18 81 1017.5
20260505214254 17 104 0.0 1.6 0.00 0.18 0.18 82 1017.7
20260505213753 17 27 0.0 0.0 0.00 0.18 0.18 82 1017.7
20260505213252 17 26 0.0 0.0 0.00 0.18 0.18 81 1017.7
20260505212752 17 26 0.0 0.0 0.00 0.18 0.18 82 1017.7
20260505211752 17 26 0.0 0.0 0.00 0.18 0.18 81 1017.7
20260505211253 17 26 0.0 0.0 0.00 0.18 0.18 81 1017.7
20260505210752 17 26 0.0 0.0 0.00 0.18 0.18 81 1017.9
20260505210255 17 26 0.0 0.0 0.00 0.18 0.18 81 1017.9
20260505205753 17 26 0.0 0.0 0.00 0.18 0.18 81 1017.9
20260505204753 17 29 0.0 0.0 0.00 0.18 0.18 81 1017.7
20260505204254 17 29 0.0 0.0 0.00 0.18 0.18 81 1017.8
20260505203755 17 29 0.0 0.0 0.00 0.18 0.18 81 1017.8
20260505203251 17 29 0.0 0.0 0.00 0.18 0.18 81 1017.9
20260505202751 17 29 0.0 0.0 0.00 0.18 0.18 81 1017.8
20260505202251 17 29 0.0 0.0 0.00 0.18 0.18 81 1017.8
20260505201752 17 29 0.0 0.0 0.00 0.18 0.18 81 1017.8
20260505200247 17 15 0.0 0.0 0.00 0.18 0.18 82 1017.8
20260505195744 17 1 0.0 1.6 0.00 0.18 0.18 82 1017.9
20260505195245 17 1 0.0 1.6 0.00 0.18 0.18 82 1017.9
20260505194743 17 97 0.0 0.0 0.00 0.18 0.18 82 1017.8
20260505194244 17 97 0.0 0.0 0.00 0.18 0.18 82 1017.7
20260505193739 17 171 0.0 0.0 0.00 0.18 0.18 82 1017.8
20260505192736 16 203 3.2 11.3 0.00 0.18 0.18 82 1017.5
20260505192233 16 127 1.6 11.3 0.00 0.18 0.18 82 1017.4
20260505191733 16 131 1.6 6.4 0.00 0.18 0.18 82 1017.3
20260505191228 17 247 0.0 6.4 0.00 0.18 0.18 82 1017.4
20260505190720 17 177 1.6 8.0 0.00 0.18 0.18 82 1017.3
20260505190213 17 192 1.6 8.0 0.00 0.18 0.18 82 1017.3
20260505185709 17 129 0.0 4.8 0.00 0.18 0.18 83 1017.4
20260505185205 17 93 0.0 0.0 0.00 0.18 0.18 83 1017.3
20260505184658 17 92 0.0 3.2 0.00 0.18 0.18 82 1017.3
20260505184150 17 95 0.0 3.2 0.00 0.18 0.18 82 1017.3
20260505183644 17 84 0.0 4.8 0.00 0.18 0.18 82 1017.1
20260505183140 17 158 0.0 4.8 0.00 0.18 0.18 82 1017.1
20260505182631 17 112 0.0 8.0 0.00 0.18 0.18 82 1017.2
20260505181621 17 103 0.0 17.7 0.00 0.18 0.18 82 1017.1
20260505181114 17 176 0.0 17.7 0.00 0.18 0.18 82 1017.0
20260505180609 17 176 0.0 0.0 0.00 0.18 0.18 82 1016.9
20260505180109 17 193 0.0 0.0 0.00 0.18 0.18 82 1017.1
20260505175049 17 177 1.6 14.5 0.00 0.18 0.18 81 1017.0
20260505174546 17 162 1.6 11.3 0.00 0.18 0.18 81 1016.9
20260505173532 17 110 1.6 14.5 0.00 0.18 0.18 80 1017.1
20260505173028 17 153 1.6 14.5 0.00 0.18 0.18 80 1017.2
20260505172529 17 284 1.6 6.4 0.00 0.18 0.18 80 1017.1
20260505172026 17 122 1.6 11.3 0.00 0.18 0.18 80 1017.1
20260505171524 17 173 1.6 11.3 0.00 0.18 0.18 80 1016.9
20260505171026 17 122 0.0 8.0 0.00 0.18 0.18 80 1017.1
20260505170524 17 208 1.6 12.9 0.00 0.18 0.18 80 1017.1
20260505170027 17 135 0.0 12.9 0.00 0.18 0.18 80 1017.1
20260505165522 17 109 0.0 3.2 0.00 0.18 0.18 80 1017.0
20260505165023 17 78 0.0 3.2 0.00 0.18 0.18 80 1017.0
20260505164021 17 266 0.0 6.4 0.00 0.18 0.18 80 1017.0
20260505163521 17 91 0.0 6.4 0.00 0.18 0.18 80 1016.9
20260505163021 17 108 0.0 3.2 0.00 0.18 0.18 80 1016.9
20260505162522 17 106 0.0 8.0 0.00 0.18 0.18 80 1017.1
20260505162019 17 141 1.6 17.7 0.00 0.18 0.18 79 1017.1
20260505161516 17 179 3.2 17.7 0.00 0.18 0.18 79 1017.2
20260505161020 18 285 3.2 19.3 0.00 0.18 0.18 79 1017.3
20260505160516 18 160 3.2 19.3 0.00 0.18 0.18 79 1017.2